Regional Weather Roundup
Issued by NWS Cleveland, OH

Home | Current Version | Previous Version | Graphics & Text | Print | Product List | Glossary On
Versions: 1 2 3 4 5 6 7 8 9 10 11 12 13 14 15 16 17 18 19 20 21 22 23 24 25 26 27 28 29 30 31 32 33 34 35 36 37 38 39 40 41 42 43 44 45 46 47 48 49 50
362
ASUS41 KCLE 230310
RWRCLE
OHIO REGIONAL WEATHER ROUNDUP
NATIONAL WEATHER SERVICE WILMINGTON, OH
1100 PM EDT SAT JUL 22 2017

NOTE: "FAIR" INDICATES FEW OR NO CLOUDS BELOW 12,000 FEET WITH NO
SIGNIFICANT WEATHER AND/OR OBSTRUCTIONS TO VISIBILITY.

OHZ001>008-015>018-024>027-034-035-043-044-230400-
   NORTHWEST OHIO

CITY           SKY/WX    TMP DP  RH WIND       PRES   REMARKS
DEFIANCE       FAIR     N/A N/A N/A NW7       29.81F
FINDLAY        FAIR      77  70  79 W7        29.80S
TOLEDO EXPRESS FAIR      75  70  84 W6        29.79F
TOLEDO EXEC    FAIR      77  71  82 W6        29.79F
LIMA           FAIR      74  72  93 SW5       29.83S
$$

OHZ009>014-019>023-028>033-038-089-230400-
   NORTHEAST OHIO

CITY           SKY/WX    TMP DP  RH WIND       PRES   REMARKS
CLE-HOPKINS    MOCLDY    80  71  74 W8        29.80R
CLE-LAKEFRONT  MOCLDY    79  72  79 W13       29.76S
CUY CO. ARPT   LGT RAIN  79  73  83 S6        29.79S
LORAIN-ELYRIA  MOCLDY    76  67  73 W3        29.80S
ASHTABULA      CLOUDY    72  72 100 E3        29.80F
AKRON-CANTON   FAIR      76  72  87 W5        29.81F
WOOSTER        FAIR      73  70  90 W5        29.82S
MANSFIELD      FAIR      75  70  84 W7        29.83S
YOUNGSTOWN     MOCLDY    73  70  90 S5        29.80S
$$

OHZ042-051>053-060>062-070>072-077>081-230400-
  SOUTHWEST OHIO

CITY           SKY/WX    TMP DP  RH WIND       PRES   REMARKS
CINC-COVINGTON CLOUDY    78  76  93 SW6       29.85F THUNDER
CINC-LUNKEN    MOCLDY    79  76  90 SW5       29.84R
HAMILTON       MOCLDY    79  76  90 W3        29.85R
DAYTON         CLOUDY    78  71  79 SW6       29.85S
WRIGHT-PAT AFB NOT AVBL
DAYTON GENERAL CLOUDY    82  69  64 W3        29.83F
WILMINGTON     MOCLDY    80  72  76 W6        29.84F
$$

OHZ036-037-039>041-045>050-054>059-063>069-073>076-082>088-230400-
  CENTRAL AND SOUTHEAST OHIO

CITY           SKY/WX    TMP DP  RH WIND       PRES   REMARKS
COLUMBUS       CLOUDY    79  72  79 W3        29.82S
OSU AIRPORT    FAIR      76  72  87 W3        29.82S
BOLTON FIELD   MOCLDY    73  72  95 SW5       29.84S
RICKENBACK AFB FAIR      74  72  95 SW3       29.82S
NEWARK         FOG       74  73  97 CALM      29.82S VSB 1
MARION         FAIR      75  69  81 W5        29.83S
LANCASTER      FAIR      70  70 100 CALM      29.84R
ZANESVILLE     FAIR      73  71  93 CALM      29.82S FOG
NEW PHILLY     MOCLDY    76  75  97 CALM      29.82R
$$




USA.gov is the U.S. government's official web portal to all federal, state and local government web resources and services.